SL-3 R/B

Satellite information

Favourite Embed

Satellite Type and Status

ROCKET BODYIN ORBIT

Key statistics

Satellite SL-3 R/B at a glance.

Uptime

15387

Days in orbit

Revolutions

≈ 14.3

Per day

Orbit

LEO

Low Earth Orbit

Inclination

81.2

Latest

Satellite identification and parameters

Extended collection of information and parameters for SL-3 R/B.

Object identification

Identified? True

Debris? False

Object name: SL-3 R/B

International designator: 1983-109B

Object number (NORAD): 14453

Object ID (CCSDS): 14453

Country: COMMONWEALTH OF INDEPENDENT STATES (CIS)

Current information (Y/N): Y

RCS size: LARGE

Orbital parameters

Period: 101.024 minutes

Inclination: 81.1661 deg

SMA: 7185.252 km

Apoapsis: 882.423 km

Periapsis: 731.811 km

RAAN: 226.6443 deg

Eccentricy: 0.01048068

Argument of periapsis: 92.785 deg

Mean anomaly: 268.533 deg

Mean motion: 14.25409886 rev/day

Mean motion (dot): 0.00000224 rev/day2

B* drag term: 0.00008415964 1/REarth

Two-line elements (TLE)

Creation date: Dec. 12, 2025, 10:14 a.m.

Reference frame: TEME

Reference center: EARTH

Epoch: Dec. 12, 2025, 4:15 a.m. UTC

TLE line 0: 0 SL-3 R/B

TLE line 1: 1 14453U 83109B 25346.17734864 .00000224 00000-0 84160-4 0 9999

TLE line 2: 2 14453 81.1661 226.6443 0104807 92.7850 268.5330 14.25409886188900

Live tracking on map

Real-time ground track for satellite SL-3 R/B.

In-orbit conjunctions

A list of the most updated potential collisions computed for object SL-3 R/B.

Target Orbit TCA Probability of collision Miss distance Type
FENGYUN 1C DEB SSO 2025-01-12 02:58:01 0.00013578 486.0 (m) DEBRIS
SL-14 DEB LEO 2024-11-20 06:16:24 0.0001413744 484.0 (m) DEBRIS
FENGYUN 1C DEB SSO 2024-09-27 05:41:55 0.000493891 408.0 (m) DEBRIS
NOAA 16 DEB SSO 2024-09-17 04:33:39 0.0001462293 914.0 (m) DEBRIS
THORAD AGENA D DEB SSO 2024-08-24 06:08:05 0.000110472 322.0 (m) DEBRIS

Associated space launch

Second generation soviet meteorological satellite

SL-3 R/B was lifted into orbit during the mission ‘Vostok 8A92M | Meteor-2 10’, on board a Vostok 8A92M space rocket.

The launch took place on Oct. 28, 1983, 9 a.m. from 16/2.

For more information about the launch, click the button.

Launch to space Vostok 8A92M | Meteor-2 10
Vostok 8A92M | Meteor-2 10

Agency: N/A

Status: Launch Successful

Launch date: Oct. 28, 1983, 9 a.m. UTC

Rocket: Vostok 8A92M

Launch pad: 16/2

Location: Plesetsk Cosmodrome, Russian Federation

...

Latest news about this satellite

There are no fresh news available about this satellite. Check back as we update our databases every day.


Newsletter sign-up

Weekly statistics, charts and insights to help you stay on top of the space industry.